User: anonymous   Login
Location: *
(33.6842°N, 117.7925°W)
Time: 00:04:43
(UTC+00:00)
Language:

IDEFIX/ARIANE 42P - Orbit

View from above orbital plane
View from above orbital plane
View from above satellite
View from above satellite

Ground track
Ground track

The orbit data is extracted from the following two-line orbital elements,

1 27422U 02021B   19340.61080977 -.00000007  00000-0  13329-4 0  9997
2 27422  98.3242 305.0061 0013398  84.1789 276.0921 14.29279159915587
Epoch (UTC): 06 December 2019 14:39:33
Eccentricity: 0.0013398
inclination: 98.3242°
perigee height: 784 km
apogee height: 804 km
right ascension of ascending node: 305.0061°
argument of perigee: 84.1789°
revolutions per day: 14.29279159
mean anomaly at epoch: 276.0921°
orbit number at epoch: 91558

The dashed part of the orbit path shows where the satellite is in the earth's shadow,  

DLR